Volver al catálogo

THOR ABLESTAR DEB

ActivoLEO
NORAD 132·DEBRIS·🇺🇸 United States

Lanzado Jun 29, 1961 desde Cape Canaveral Space Force Station

Loading…

Próximos Pases (próximas 24 horas)

TLE

ActualizadoSource: Space-Track

Época: Sep 6, 2026, 04:23 UTC

1 00132U 61015S   26249.18298797 -.00000032  00000-0  34025-4 0  9997
2 00132  66.6596 131.6647 0069772 139.5652 221.0644 13.94782911314963

Sigue THOR ABLESTAR DEB en tiempo real con AllMySat

Download on the App Store